STARLINK-5283, 55396

Orbit data source: Space-Track

STARLINK-5283, 55396 is a payload satellite owned by SpaceX/Seattle (US) in LEO that was launched on Tue, 31 Jan 2023 UTC via an FALCON 9 launch vehicle from the Air Force Western Test Range (AFWTR). Payload-class satellites include a variety of spacecraft equipped with specific instruments for various scientific and technological missions. These include communications satellites like Starlink; space stations such as the ISS; scientific satellites like the Hubble; Earth observation satellites from companies like Planet Labs, Umbra, and HawkEye 360; GPS; miniature CubeSats for education and research; and military/defense satellites.

Loading next visibility...
Identifier
55396, 2023-014F
Orbit
LEO
Country
Flag of USUS
Related business
Manufacturer
SpaceX/Seattle
Mission
Operational Commercial Communications
Bus & Motor
STARLINK, Unknown motor
Mass
305 kg wet, ~290 kg dry
Launch date (UTC)
2023-01-31 (3 years ago)
Launch vehicle
FALCON 9
Launch site
Air Force Western Test Range (AFWTR)
Object type
Payload
Rocket body
Debris
Shape & HBR
Box + 1 Pan, 10.1 m
Radar Cross Section
13.562 m², Large (>1 m²)

Expand to show TLE details & history
Last TLE update: 2 days ago

TLE from 2 days ago
0 STARLINK-5283
1 55396U 23014F   26171.39855101  .00002687  00000-0  23299-3 0  9998
2 55396  69.9996 165.3514 0003884 263.7494  96.3223 14.98317562187446
Epoch: 2026-06-20T09:33Z
TLE epoch observation values (Epoch: 2026-06-20T09:33:54.807Z)
Latitude
0.00002°
Longitude
113.2593°
Altitude
574.817 km
Speed
7.574 km/s
True Right ascension
11h 01m 24s
True Declination
0° 00' 00"
Sunlit
Object was in daylight at epoch
Visualization orbit readout
Latitude
Unknown
Longitude
Unknown
Altitude
Unknown
Speed
Unknown
Apparent Right ascension
Unknown
Apparent Declination
Unknown
Sunlit
N/A
Visualization observer readout
Local Sidereal Time
23:07:43
Azimuth
Unknown
Elevation
Unknown
Doppler factor
Unknown
Orbital elements
Apogee altitude
572.741 km
Perigee altitude
567.344 km
Semi-major axis
6,948.18 km
Eccentricity
0.00039
Inclination
69.9996°
RAAN
165.3514°
Arg. of periapsis
263.7494°
True anomaly
96.36653°
Mean anomaly
96.3223°
Eccentric anomaly
96.34442°
Mean motion
3.74746 °/min
Orbital period
96.07 mins
BSTAR
0.00023299
Loading maneuver chart data...
Computing Atmospheric mass density...

Documentation

Showing up to 5 results
|